<?xml version="1.0" encoding="UTF-8" standalone="no" ?>
<gpx xmlns="http://www.topografix.com/GPX/1/1" xmlns:xsi="http://www.w3.org/2001/XMLSchema-instance" xsi:schemaLocation="http://www.topografix.com/GPX/1/1 http://www.topografix.com/GPX/1/1/gpx.xsd" version="1.1" creator="VisuGPX - https://www.visugpx.com">
  <metadata>
    <name>Aravis, séjour du RCMF</name>
    <desc><![CDATA[Aravis, séjour du RCMF]]></desc>
  </metadata>
  <trk>
    <name><![CDATA[Plan Dessus]]></name>
    <trkseg>
      <trkpt lat="45.84203" lon="6.50641">
        <ele>979.6</ele>
        <time>2003-02-06T13:08:28Z</time>
      </trkpt>
      <trkpt lat="45.84315" lon="6.50414">
        <ele>978.8</ele>
        <time>2003-02-06T13:08:28Z</time>
      </trkpt>
      <trkpt lat="45.84132" lon="6.50529">
        <ele>996.8</ele>
        <time>2003-02-06T13:08:28Z</time>
      </trkpt>
      <trkpt lat="45.84026" lon="6.50483">
        <ele>1012.6</ele>
        <time>2003-02-06T13:08:28Z</time>
      </trkpt>
      <trkpt lat="45.83874" lon="6.50584">
        <ele>1030.6</ele>
        <time>2003-02-06T13:08:28Z</time>
      </trkpt>
      <trkpt lat="45.83745" lon="6.5059">
        <ele>1038.8</ele>
        <time>2003-02-06T13:08:28Z</time>
      </trkpt>
      <trkpt lat="45.83708" lon="6.50504">
        <ele>1052.8</ele>
        <time>2003-02-06T13:08:28Z</time>
      </trkpt>
      <trkpt lat="45.83816" lon="6.50499">
        <ele>1063.9</ele>
        <time>2003-02-06T13:08:28Z</time>
      </trkpt>
      <trkpt lat="45.8371" lon="6.50427">
        <ele>1080.7</ele>
        <time>2003-02-06T13:08:28Z</time>
      </trkpt>
      <trkpt lat="45.83849" lon="6.50386">
        <ele>1100.1</ele>
        <time>2003-02-06T13:08:28Z</time>
      </trkpt>
      <trkpt lat="45.83947" lon="6.50235">
        <ele>1115.6</ele>
        <time>2003-02-06T13:08:28Z</time>
      </trkpt>
      <trkpt lat="45.83948" lon="6.50151">
        <ele>1125.9</ele>
        <time>2003-02-06T13:08:28Z</time>
      </trkpt>
      <trkpt lat="45.84072" lon="6.49977">
        <ele>1150.3</ele>
        <time>2003-02-06T13:08:28Z</time>
      </trkpt>
      <trkpt lat="45.84074" lon="6.49922">
        <ele>1171.3</ele>
        <time>2003-02-06T13:08:28Z</time>
      </trkpt>
      <trkpt lat="45.84125" lon="6.49888">
        <ele>1188.5</ele>
        <time>2003-02-06T13:08:28Z</time>
      </trkpt>
      <trkpt lat="45.84072" lon="6.4979">
        <ele>1224.3</ele>
        <time>2003-02-06T13:08:28Z</time>
      </trkpt>
      <trkpt lat="45.84162" lon="6.496">
        <ele>1265.7</ele>
        <time>2003-02-06T13:08:28Z</time>
      </trkpt>
      <trkpt lat="45.84333" lon="6.49552">
        <ele>1273.8</ele>
        <time>2003-02-06T13:08:28Z</time>
      </trkpt>
      <trkpt lat="45.84488" lon="6.49435">
        <ele>1292.1</ele>
        <time>2003-02-06T13:08:28Z</time>
      </trkpt>
      <trkpt lat="45.84798" lon="6.4941">
        <ele>1338.3</ele>
        <time>2003-02-06T13:08:28Z</time>
      </trkpt>
      <trkpt lat="45.84872" lon="6.4899">
        <ele>1324.9</ele>
        <time>2003-02-06T13:08:28Z</time>
      </trkpt>
      <trkpt lat="45.84836" lon="6.48855">
        <ele>1325.4</ele>
        <time>2003-02-06T13:08:28Z</time>
      </trkpt>
      <trkpt lat="45.84405" lon="6.48156">
        <ele>1364.1</ele>
        <time>2003-02-06T13:08:28Z</time>
      </trkpt>
      <trkpt lat="45.84475" lon="6.47726">
        <ele>1374.7</ele>
        <time>2003-02-06T13:08:28Z</time>
      </trkpt>
      <trkpt lat="45.84442" lon="6.47275">
        <ele>1399.2</ele>
        <time>2003-02-06T13:08:28Z</time>
      </trkpt>
      <trkpt lat="45.84549" lon="6.46997">
        <ele>1432.6</ele>
        <time>2003-02-06T13:08:28Z</time>
      </trkpt>
      <trkpt lat="45.84537" lon="6.46841">
        <ele>1461.9</ele>
        <time>2003-02-06T13:08:28Z</time>
      </trkpt>
      <trkpt lat="45.84474" lon="6.46707">
        <ele>1499.1</ele>
        <time>2003-02-06T13:08:28Z</time>
      </trkpt>
      <trkpt lat="45.84373" lon="6.46584">
        <ele>1522.4</ele>
        <time>2003-02-06T13:08:28Z</time>
      </trkpt>
      <trkpt lat="45.84248" lon="6.46487">
        <ele>1562.3</ele>
        <time>2003-02-06T13:08:28Z</time>
      </trkpt>
      <trkpt lat="45.84139" lon="6.46373">
        <ele>1614.6</ele>
        <time>2003-02-06T13:08:28Z</time>
      </trkpt>
      <trkpt lat="45.84077" lon="6.4623">
        <ele>1655.4</ele>
        <time>2003-02-06T13:08:28Z</time>
      </trkpt>
      <trkpt lat="45.83949" lon="6.46223">
        <ele>1666.6</ele>
        <time>2003-02-06T13:08:28Z</time>
      </trkpt>
      <trkpt lat="45.83903" lon="6.46175">
        <ele>1672.6</ele>
        <time>2003-02-06T13:08:28Z</time>
      </trkpt>
      <trkpt lat="45.83825" lon="6.46291">
        <ele>1684.8</ele>
        <time>2003-02-06T13:08:28Z</time>
      </trkpt>
      <trkpt lat="45.83688" lon="6.46394">
        <ele>1693.8</ele>
        <time>2003-02-06T13:08:28Z</time>
      </trkpt>
      <trkpt lat="45.83669" lon="6.46737">
        <ele>1710.2</ele>
        <time>2003-02-06T13:08:28Z</time>
      </trkpt>
      <trkpt lat="45.83605" lon="6.46813">
        <ele>1710.6</ele>
        <time>2003-02-06T13:08:28Z</time>
      </trkpt>
      <trkpt lat="45.83518" lon="6.46967">
        <ele>1745</ele>
        <time>2003-02-06T13:08:28Z</time>
      </trkpt>
      <trkpt lat="45.8349" lon="6.47178">
        <ele>1772.5</ele>
        <time>2003-02-06T13:08:28Z</time>
      </trkpt>
      <trkpt lat="45.83557" lon="6.47515">
        <ele>1802.9</ele>
        <time>2003-02-06T13:08:28Z</time>
      </trkpt>
      <trkpt lat="45.83642" lon="6.47705">
        <ele>1804.9</ele>
        <time>2003-02-06T13:08:28Z</time>
      </trkpt>
      <trkpt lat="45.83653" lon="6.47912">
        <ele>1829.7</ele>
        <time>2003-02-06T13:08:28Z</time>
      </trkpt>
      <trkpt lat="45.83778" lon="6.48118">
        <ele>1807.5</ele>
        <time>2003-02-06T13:08:28Z</time>
      </trkpt>
      <trkpt lat="45.8382" lon="6.48366">
        <ele>1830.8</ele>
        <time>2003-02-06T13:08:28Z</time>
      </trkpt>
      <trkpt lat="45.83867" lon="6.48508">
        <ele>1778.1</ele>
        <time>2003-02-06T13:08:28Z</time>
      </trkpt>
      <trkpt lat="45.83936" lon="6.48665">
        <ele>1719.7</ele>
        <time>2003-02-06T13:08:28Z</time>
      </trkpt>
      <trkpt lat="45.83959" lon="6.48824">
        <ele>1656.8</ele>
        <time>2003-02-06T13:08:28Z</time>
      </trkpt>
      <trkpt lat="45.84027" lon="6.48991">
        <ele>1582.8</ele>
        <time>2003-02-06T13:08:28Z</time>
      </trkpt>
      <trkpt lat="45.84112" lon="6.48952">
        <ele>1553.4</ele>
        <time>2003-02-06T13:08:28Z</time>
      </trkpt>
      <trkpt lat="45.842" lon="6.48949">
        <ele>1571.7</ele>
        <time>2003-02-06T13:08:28Z</time>
      </trkpt>
      <trkpt lat="45.84338" lon="6.4894">
        <ele>1544.1</ele>
        <time>2003-02-06T13:08:28Z</time>
      </trkpt>
      <trkpt lat="45.8444" lon="6.48967">
        <ele>1527.5</ele>
        <time>2003-02-06T13:08:28Z</time>
      </trkpt>
      <trkpt lat="45.84532" lon="6.49045">
        <ele>1465.8</ele>
        <time>2003-02-06T13:08:28Z</time>
      </trkpt>
      <trkpt lat="45.84647" lon="6.49173">
        <ele>1406.7</ele>
        <time>2003-02-06T13:08:28Z</time>
      </trkpt>
      <trkpt lat="45.84791" lon="6.49406">
        <ele>1339.4</ele>
        <time>2003-02-06T13:08:28Z</time>
      </trkpt>
      <trkpt lat="45.84465" lon="6.49446">
        <ele>1289</ele>
        <time>2003-02-06T13:08:28Z</time>
      </trkpt>
      <trkpt lat="45.84305" lon="6.49569">
        <ele>1273.5</ele>
        <time>2003-02-06T13:08:28Z</time>
      </trkpt>
      <trkpt lat="45.8416" lon="6.496">
        <ele>1266.2</ele>
        <time>2003-02-06T13:08:28Z</time>
      </trkpt>
      <trkpt lat="45.84065" lon="6.49793">
        <ele>1221.7</ele>
        <time>2003-02-06T13:08:28Z</time>
      </trkpt>
      <trkpt lat="45.84124" lon="6.49894">
        <ele>1185.6</ele>
        <time>2003-02-06T13:08:28Z</time>
      </trkpt>
      <trkpt lat="45.84072" lon="6.49922">
        <ele>1170.7</ele>
        <time>2003-02-06T13:08:28Z</time>
      </trkpt>
      <trkpt lat="45.84072" lon="6.4998">
        <ele>1149.1</ele>
        <time>2003-02-06T13:08:28Z</time>
      </trkpt>
      <trkpt lat="45.83951" lon="6.50148">
        <ele>1125.9</ele>
        <time>2003-02-06T13:08:28Z</time>
      </trkpt>
      <trkpt lat="45.83945" lon="6.50241">
        <ele>1116</ele>
        <time>2003-02-06T13:08:28Z</time>
      </trkpt>
      <trkpt lat="45.83856" lon="6.50383">
        <ele>1101.5</ele>
        <time>2003-02-06T13:08:28Z</time>
      </trkpt>
      <trkpt lat="45.83706" lon="6.50426">
        <ele>1081.3</ele>
        <time>2003-02-06T13:08:28Z</time>
      </trkpt>
      <trkpt lat="45.83813" lon="6.50502">
        <ele>1063.1</ele>
        <time>2003-02-06T13:08:28Z</time>
      </trkpt>
      <trkpt lat="45.83708" lon="6.50504">
        <ele>1052.8</ele>
        <time>2003-02-06T13:08:28Z</time>
      </trkpt>
      <trkpt lat="45.83743" lon="6.50584">
        <ele>1040.6</ele>
        <time>2003-02-06T13:08:28Z</time>
      </trkpt>
      <trkpt lat="45.83876" lon="6.50584">
        <ele>1030.1</ele>
        <time>2003-02-06T13:08:28Z</time>
      </trkpt>
      <trkpt lat="45.84033" lon="6.50483">
        <ele>1011.6</ele>
        <time>2003-02-06T13:08:28Z</time>
      </trkpt>
      <trkpt lat="45.8413" lon="6.50529">
        <ele>997.2</ele>
        <time>2003-02-06T13:08:28Z</time>
      </trkpt>
      <trkpt lat="45.84317" lon="6.50418">
        <ele>978.5</ele>
        <time>2003-02-06T13:08:28Z</time>
      </trkpt>
      <trkpt lat="45.84205" lon="6.50638">
        <ele>978.4</ele>
        <time>2003-02-06T13:08:28Z</time>
      </trkpt>
    </trkseg>
  </trk>
</gpx>